Volver al catálogo

COSMOS 1642

ActivoNavegaciónLEO
NORAD 15624·PAYLOAD·🇷🇺 Russia

Lanzado Mar 21, 1985 desde Plesetsk Cosmodrome

Loading…

Próximos Pases (próximas 24 horas)

TLE

ActualizadoSource: Space-Track

Época: Sep 14, 2026, 07:32 UTC

1 15624U 85023H   26257.31438373 -.00000012  00000-0  24061-4 0  9991
2 15624  74.0592   7.7622 0050640  52.6885 334.5890 12.56394437902669

Sigue COSMOS 1642 en tiempo real con AllMySat

Download on the App Store